Flag for Brazil Weather past 2 weeks in Belo Horizonte, Minas Gerais, Brazil

Now
68 °F

Clear.


Feels Like: 68 °F
Forecast: 61 / 81 °F
Wind: 8 mph from East

Location: Belo Horizonte Airport

Current Time: Sep 23, 2014 at 10:18:04 PM

Latest Report: Sep 23, 2014 at 10:00 PM


Visibility: 10 mi

Pressure: 30.18 "Hg

Humidity: 49%

Dew point: 48 °F

Location of Belo HorizonteLocation

Historic Weather in Belo Horizonte — Graph

°F

Belo Horizonte temperature yesterday

Maximum temperature yesterday: 82 °F (at 2:00 PM)
Minimum temperature yesterday: 63 °F (at 6:00 AM)
Average temperature yesterday: 73 °F

Past Weeks' High & Low Weather Summary

 TemperatureHumidityPressure
High90 °F (Sep 16, 2:00 PM)88% (Sep 18, 4:00 AM)30.30 "Hg (Sep 18, 4:00 AM)
Low57 °F (Sep 9, 5:00 AM)15% (Sep 11, 3:00 PM)29.95 "Hg (Sep 21, 2:00 PM)
Average73 °F47%30.11 "Hg
* Reported Sep 8 9:00 PM — Sep 23 9:00 PM, Belo Horizonte, Weather by CustomWeather, © 2014

Note: Actual official high and low records may vary slightly from our data, if they occured in-between our weather recording intervals... More about our weather records

Advertising

Belo Horizonte weather history for previous 24 hours

 ConditionsComfort  
Time TempWeatherWind HumidityBarometerVisibility
9:00 PM
Sep 23
70 °FClear.14 mph43%30.18 "Hg10 mi
8:00 PM72 °FClear.10 mph38%30.15 "Hg10 mi
7:00 PM73 °FClear.9 mph36%30.15 "Hg10 mi
6:00 PM75 °FClear.13 mph34%30.12 "Hg10 mi
5:00 PM79 °FSunny.10 mph30%30.09 "Hg10 mi
4:00 PM81 °FSunny.12 mph30%30.09 "Hg10 mi
3:00 PM81 °FSunny.12 mph32%30.09 "Hg10 mi
2:00 PM81 °FSunny.9 mph32%30.12 "Hg10 mi
1:00 PM79 °FSunny.12 mph34%30.15 "Hg10 mi
12:00 PM77 °FSunny.12 mph36%30.15 "Hg10 mi
11:00 AM75 °FSunny.9 mph39%30.18 "Hg10 mi
10:00 AM73 °FPassing clouds.9 mph41%30.21 "HgN/A
9:00 AM72 °FPassing clouds.9 mph23%30.21 "HgN/A
8:00 AM68 °FPassing clouds.13 mph60%30.21 "HgN/A
7:00 AM64 °FPassing clouds.10 mph68%30.21 "HgN/A
6:00 AM63 °FSunny.13 mph77%30.18 "Hg10 mi
5:00 AM63 °FClear.12 mph77%30.15 "Hg10 mi
4:00 AM63 °FClear.13 mph77%30.12 "Hg10 mi
3:00 AM64 °FClear.12 mph73%30.15 "Hg10 mi
2:00 AM64 °FClear.13 mph68%30.15 "Hg10 mi
1:00 AM66 °FClear.13 mph64%30.18 "Hg10 mi
12:00 AM66 °FClear.12 mph56%30.18 "Hg10 mi
11:00 PM
Sep 22
68 °FClear.12 mph38%30.18 "Hg10 mi
10:00 PM72 °FClear.16 mph31%30.15 "Hg10 mi
Weather by CustomWeather, © 2014

See weather overviewHow to use our weather pages